Data No.,UTC Date,UTC Time,Latitude,Longitude,Course(deg),Temp(degC),Sal(psu)
436,2014/7/10,11:10:00,12-11.5000N,101-00.0500E,143,30.392,31.3495
437,2014/7/10,11:11:00,12-11.3300N,101-00.1700E,143,30.395,31.3485
438,2014/7/10,11:12:00,12-11.1700N,101-00.3000E,143,30.397,31.3482
439,2014/7/10,11:13:00,12-11.0000N,101-00.4300E,143,30.398,31.3462
440,2014/7/10,11:14:00,12-10.8300N,101-00.5500E,143,30.401,31.3443
441,2014/7/10,11:15:00,12-10.6700N,101-00.6800E,143,30.403,31.344
442,2014/7/10,11:16:00,12-10.5300N,101-00.7900E,142,30.406,31.3434
443,2014/7/10,11:17:00,12-10.3600N,101-00.9200E,142,30.409,31.3441
444,2014/7/10,11:18:00,12-10.2000N,101-01.0500E,142,30.411,31.3433
445,2014/7/10,11:19:00,12-10.0300N,101-01.1800E,141,30.413,31.3446
446,2014/7/10,11:20:00,12-09.8700N,101-01.3100E,141,30.415,31.3456
447,2014/7/10,11:21:00,12-09.7000N,101-01.4300E,142,30.416,31.3445
448,2014/7/10,11:22:00,12-09.5400N,101-01.5600E,143,30.417,31.3435
449,2014/7/10,11:23:00,12-09.3700N,101-01.6900E,143,30.415,31.3417
450,2014/7/10,11:24:00,12-09.2000N,101-01.8200E,143,30.412,31.3385
451,2014/7/10,11:25:00,12-09.0400N,101-01.9500E,143,30.409,31.3342
452,2014/7/10,11:26:00,12-08.8700N,101-02.0700E,143,30.409,31.3294
453,2014/7/10,11:27:00,12-08.7000N,101-02.2000E,142,30.41,31.3271
454,2014/7/10,11:28:00,12-08.5400N,101-02.3300E,143,30.41,31.3263
455,2014/7/10,11:29:00,12-08.3700N,101-02.4500E,142,30.412,31.3267
456,2014/7/10,11:30:00,12-08.2100N,101-02.5800E,142,30.415,31.3272
457,2014/7/10,11:31:00,12-08.0500N,101-02.7100E,142,30.416,31.3282
458,2014/7/10,11:32:00,12-07.8800N,101-02.8400E,143,30.418,31.3281
459,2014/7/10,11:33:00,12-07.7100N,101-02.9600E,143,30.423,31.3293
460,2014/7/10,11:34:00,12-07.5500N,101-03.0900E,143,30.43,31.3345
461,2014/7/10,11:35:00,12-07.3800N,101-03.2200E,143,30.433,31.3429
462,2014/7/10,11:36:00,12-07.2100N,101-03.3500E,142,30.432,31.3484
463,2014/7/10,11:37:00,12-07.0400N,101-03.4800E,142,30.433,31.3433
464,2014/7/10,11:38:00,12-06.8800N,101-03.6000E,149,30.434,31.3396
465,2014/7/10,11:39:00,12-06.6900N,101-03.6900E,153,30.433,31.3378
466,2014/7/10,11:40:00,12-06.5000N,101-03.7800E,155,30.439,31.3383
467,2014/7/10,11:41:00,12-06.3200N,101-03.8700E,154,30.438,31.3408
468,2014/7/10,11:42:00,12-06.1300N,101-03.9500E,155,30.436,31.3302
469,2014/7/10,11:43:00,12-05.9400N,101-04.0400E,156,30.436,31.3273
470,2014/7/10,11:44:00,12-05.7500N,101-04.1200E,156,30.444,31.3271
471,2014/7/10,11:45:00,12-05.5700N,101-04.2200E,151,30.446,31.3303
472,2014/7/10,11:46:00,12-05.4000N,101-04.3400E,142,30.445,31.3289
473,2014/7/10,11:47:00,12-05.2400N,101-04.4700E,140,30.449,31.3283
474,2014/7/10,11:48:00,12-05.0800N,101-04.6000E,139,30.455,31.3304
475,2014/7/10,11:49:00,12-04.9100N,101-04.7400E,141,30.454,31.3372
476,2014/7/10,11:50:00,12-04.7500N,101-04.8700E,141,30.453,31.3378
477,2014/7/10,11:51:00,12-04.5800N,101-05.0000E,142,30.455,31.3354
478,2014/7/10,11:52:00,12-04.4200N,101-05.1300E,141,30.454,31.3387
479,2014/7/10,11:53:00,12-04.2500N,101-05.2600E,142,30.451,31.3426
480,2014/7/10,11:54:00,12-04.0800N,101-05.3900E,143,30.447,31.3425
481,2014/7/10,11:55:00,12-03.9200N,101-05.5200E,142,30.449,31.341
482,2014/7/10,11:56:00,12-03.7500N,101-05.6500E,142,30.453,31.3399
483,2014/7/10,11:57:00,12-03.5900N,101-05.7800E,142,30.451,31.3396
484,2014/7/10,11:58:00,12-03.4200N,101-05.9100E,143,30.446,31.3362
485,2014/7/10,11:59:00,12-03.2500N,101-06.0400E,143,30.441,31.3302
486,2014/7/10,12:00:00,12-03.0900N,101-06.1700E,143,30.435,31.3268
487,2014/7/10,12:01:00,12-02.9200N,101-06.3000E,143,30.427,31.3228
488,2014/7/10,12:02:00,12-02.7600N,101-06.4300E,141,30.425,31.3175
489,2014/7/10,12:03:00,12-02.5900N,101-06.5600E,142,30.425,31.3197
490,2014/7/10,12:04:00,12-02.4200N,101-06.6900E,142,30.424,31.3245
491,2014/7/10,12:05:00,12-02.2600N,101-06.8200E,142,30.42,31.3194
492,2014/7/10,12:06:00,12-02.0900N,101-06.9400E,143,30.424,31.3156
493,2014/7/10,12:07:00,12-01.9300N,101-07.0700E,142,30.428,31.3154
494,2014/7/10,12:08:00,12-01.7600N,101-07.2000E,141,30.428,31.314
495,2014/7/10,12:09:00,12-01.6000N,101-07.3300E,143,30.43,31.3123
496,2014/7/10,12:10:00,12-01.4300N,101-07.4600E,142,30.432,31.3139
497,2014/7/10,12:11:00,12-01.2600N,101-07.5900E,143,30.437,31.3166
498,2014/7/10,12:12:00,12-01.1000N,101-07.7200E,142,30.441,31.3187
499,2014/7/10,12:13:00,12-00.9300N,101-07.8600E,141,30.443,31.3207
500,2014/7/10,12:14:00,12-00.7700N,101-07.9900E,142,30.439,31.322
501,2014/7/10,12:15:00,12-00.6000N,101-08.1200E,141,30.437,31.3235
502,2014/7/10,12:16:00,12-00.4300N,101-08.2500E,142,30.44,31.3258
503,2014/7/10,12:17:00,12-00.2600N,101-08.3800E,143,30.442,31.3254
504,2014/7/10,12:18:00,12-00.1000N,101-08.5000E,142,30.444,31.3245
505,2014/7/10,12:19:00,11-59.9300N,101-08.6300E,142,30.444,31.3244
506,2014/7/10,12:20:00,11-59.7700N,101-08.7600E,141,30.444,31.3235
507,2014/7/10,12:21:00,11-59.6000N,101-08.8900E,142,30.442,31.3231
508,2014/7/10,12:22:00,11-59.4300N,101-09.0200E,142,30.438,31.3234
509,2014/7/10,12:23:00,11-59.2700N,101-09.1500E,141,30.437,31.3252
510,2014/7/10,12:24:00,11-59.1000N,101-09.2800E,141,30.435,31.325
511,2014/7/10,12:25:00,11-58.9300N,101-09.4100E,142,30.434,31.3228
512,2014/7/10,12:26:00,11-58.7700N,101-09.5400E,143,30.435,31.3229
513,2014/7/10,12:27:00,11-58.6000N,101-09.6700E,142,30.437,31.3211
514,2014/7/10,12:28:00,11-58.4300N,101-09.8000E,144,30.436,31.3174
515,2014/7/10,12:29:00,11-58.2600N,101-09.9200E,146,30.432,31.3136
516,2014/7/10,12:30:00,11-58.0900N,101-10.0400E,144,30.427,31.309
517,2014/7/10,12:31:00,11-57.9200N,101-10.1600E,142,30.423,31.3031
518,2014/7/10,12:32:00,11-57.7600N,101-10.2900E,142,30.42,31.2978
519,2014/7/10,12:33:00,11-57.5900N,101-10.4300E,141,30.417,31.2912
520,2014/7/10,12:34:00,11-57.4300N,101-10.5600E,142,30.414,31.286
521,2014/7/10,12:35:00,11-57.2700N,101-10.6900E,141,30.415,31.2816
522,2014/7/10,12:36:00,11-57.1000N,101-10.8400E,140,30.412,31.2788
523,2014/7/10,12:37:00,11-56.9200N,101-10.9800E,142,30.411,31.2756
524,2014/7/10,12:38:00,11-56.7700N,101-11.1000E,143,30.413,31.2746
525,2014/7/10,12:39:00,11-56.6100N,101-11.2300E,143,30.417,31.2747
526,2014/7/10,12:40:00,11-56.4500N,101-11.3600E,142,30.418,31.2812
527,2014/7/10,12:41:00,11-56.2800N,101-11.4900E,142,30.417,31.2857
528,2014/7/10,12:42:00,11-56.1200N,101-11.6200E,143,30.416,31.2883
529,2014/7/10,12:43:00,11-55.9500N,101-11.7500E,142,30.414,31.2896
530,2014/7/10,12:44:00,11-55.7900N,101-11.8900E,143,30.416,31.2908
531,2014/7/10,12:45:00,11-55.6300N,101-12.0200E,141,30.419,31.294
532,2014/7/10,12:46:00,11-55.4600N,101-12.1500E,142,30.42,31.2999
533,2014/7/10,12:47:00,11-55.3000N,101-12.2800E,144,30.42,31.3059
534,2014/7/10,12:48:00,11-55.1300N,101-12.4100E,143,30.42,31.3058
535,2014/7/10,12:49:00,11-54.9700N,101-12.5400E,142,30.422,31.3067
536,2014/7/10,12:50:00,11-54.8000N,101-12.6600E,142,30.425,31.3073
537,2014/7/10,12:51:00,11-54.6300N,101-12.7900E,141,30.427,31.3078
538,2014/7/10,12:52:00,11-54.4700N,101-12.9200E,143,30.428,31.3068
539,2014/7/10,12:53:00,11-54.3000N,101-13.0500E,142,30.424,31.3062
540,2014/7/10,12:54:00,11-54.1300N,101-13.1800E,142,30.422,31.3003
541,2014/7/10,12:55:00,11-53.9700N,101-13.3000E,142,30.418,31.2959
542,2014/7/10,12:56:00,11-53.8000N,101-13.4300E,143,30.415,31.2917
543,2014/7/10,12:57:00,11-53.6400N,101-13.5600E,142,30.413,31.2858
544,2014/7/10,12:58:00,11-53.4700N,101-13.6900E,143,30.411,31.2796
545,2014/7/10,12:59:00,11-53.3100N,101-13.8200E,142,30.411,31.2755
546,2014/7/10,13:00:00,11-53.1500N,101-13.9500E,142,30.412,31.2717
547,2014/7/10,13:01:00,11-52.9800N,101-14.0700E,143,30.411,31.2686
548,2014/7/10,13:02:00,11-52.8100N,101-14.2000E,144,30.416,31.2667
549,2014/7/10,13:03:00,11-52.6400N,101-14.3200E,144,30.417,31.2666
550,2014/7/10,13:04:00,11-52.4700N,101-14.4400E,145,30.416,31.2658
551,2014/7/10,13:05:00,11-52.3000N,101-14.5600E,145,30.417,31.264
552,2014/7/10,13:06:00,11-52.1300N,101-14.6800E,145,30.422,31.2626
553,2014/7/10,13:07:00,11-51.9600N,101-14.8000E,144,30.426,31.2625
554,2014/7/10,13:08:00,11-51.8000N,101-14.9200E,145,30.43,31.2608
555,2014/7/10,13:09:00,11-51.6300N,101-15.0400E,144,30.433,31.2612
556,2014/7/10,13:10:00,11-51.4600N,101-15.1700E,143,30.436,31.2602
557,2014/7/10,13:11:00,11-51.2900N,101-15.2900E,144,30.439,31.2582
558,2014/7/10,13:12:00,11-51.1200N,101-15.4100E,144,30.443,31.2561
559,2014/7/10,13:13:00,11-50.9500N,101-15.5300E,144,30.445,31.2553
560,2014/7/10,13:14:00,11-50.7800N,101-15.6500E,145,30.446,31.2513
561,2014/7/10,13:15:00,11-50.6100N,101-15.7700E,144,30.445,31.2512
562,2014/7/10,13:16:00,11-50.4500N,101-15.8900E,144,30.444,31.2504
563,2014/7/10,13:17:00,11-50.2800N,101-16.0200E,144,30.44,31.2523
564,2014/7/10,13:18:00,11-50.1100N,101-16.1400E,146,30.438,31.2546
565,2014/7/10,13:19:00,11-49.9400N,101-16.2600E,144,30.439,31.2551
566,2014/7/10,13:20:00,11-49.7700N,101-16.3800E,144,30.439,31.2562
567,2014/7/10,13:21:00,11-49.6000N,101-16.5000E,145,30.437,31.2572
568,2014/7/10,13:22:00,11-49.4300N,101-16.6100E,145,30.436,31.2579
569,2014/7/10,13:23:00,11-49.2600N,101-16.7300E,145,30.434,31.2576
570,2014/7/10,13:24:00,11-49.0900N,101-16.8600E,144,30.432,31.2578
571,2014/7/10,13:25:00,11-48.9200N,101-16.9800E,145,30.433,31.2578
572,2014/7/10,13:26:00,11-48.7500N,101-17.1000E,144,30.433,31.2585
573,2014/7/10,13:27:00,11-48.5800N,101-17.2200E,143,30.434,31.2592
574,2014/7/10,13:28:00,11-48.4100N,101-17.3400E,144,30.43,31.2589
575,2014/7/10,13:29:00,11-48.2400N,101-17.4700E,143,30.428,31.2579
576,2014/7/10,13:30:00,11-48.0700N,101-17.5900E,143,30.424,31.2571
577,2014/7/10,13:31:00,11-47.9100N,101-17.7200E,144,30.424,31.255
578,2014/7/10,13:32:00,11-47.7400N,101-17.8400E,143,30.425,31.2479
579,2014/7/10,13:33:00,11-47.5800N,101-17.9700E,142,30.425,31.2442
580,2014/7/10,13:34:00,11-47.4200N,101-18.1000E,141,30.428,31.2434
581,2014/7/10,13:35:00,11-47.2500N,101-18.2400E,141,30.425,31.2393
582,2014/7/10,13:36:00,11-47.0900N,101-18.3700E,141,30.422,31.2389
583,2014/7/10,13:37:00,11-46.9300N,101-18.5000E,140,30.42,31.2421
584,2014/7/10,13:38:00,11-46.7700N,101-18.6400E,140,30.417,31.2448
585,2014/7/10,13:39:00,11-46.6100N,101-18.7700E,141,30.415,31.2436
586,2014/7/10,13:40:00,11-46.4400N,101-18.9000E,141,30.416,31.2399
587,2014/7/10,13:41:00,11-46.2800N,101-19.0300E,141,30.415,31.2388
588,2014/7/10,13:42:00,11-46.1200N,101-19.1600E,141,30.413,31.238
589,2014/7/10,13:43:00,11-45.9600N,101-19.2900E,141,30.41,31.2367
590,2014/7/10,13:44:00,11-45.8000N,101-19.4300E,140,30.409,31.2342
591,2014/7/10,13:45:00,11-45.6400N,101-19.5600E,140,30.409,31.2351
592,2014/7/10,13:46:00,11-45.4800N,101-19.6900E,140,30.405,31.2371
593,2014/7/10,13:47:00,11-45.3200N,101-19.8300E,141,30.396,31.2373
594,2014/7/10,13:48:00,11-45.1500N,101-19.9600E,140,30.379,31.2362
595,2014/7/10,13:49:00,11-45.0000N,101-20.1000E,138,30.363,31.2377
596,2014/7/10,13:50:00,11-44.8300N,101-20.2400E,140,30.355,31.2529
597,2014/7/10,13:51:00,11-44.6700N,101-20.3700E,139,30.354,31.2564
598,2014/7/10,13:52:00,11-44.5100N,101-20.5100E,140,30.35,31.2635
599,2014/7/10,13:53:00,11-44.3500N,101-20.6400E,140,30.347,31.2678
600,2014/7/10,13:54:00,11-44.1800N,101-20.7800E,141,30.348,31.2582
601,2014/7/10,13:55:00,11-44.0200N,101-20.9200E,139,30.347,31.2625
602,2014/7/10,13:56:00,11-43.8600N,101-21.0600E,141,30.349,31.2678
603,2014/7/10,13:57:00,11-43.6900N,101-21.1900E,142,30.353,31.2598
604,2014/7/10,13:58:00,11-43.5300N,101-21.3200E,142,30.359,31.2515
605,2014/7/10,13:59:00,11-43.3600N,101-21.4500E,142,30.364,31.2434
606,2014/7/10,14:00:00,11-43.2000N,101-21.5800E,142,30.368,31.2388
607,2014/7/10,14:01:00,11-43.0300N,101-21.7100E,141,30.372,31.2322
608,2014/7/10,14:02:00,11-42.8700N,101-21.8500E,141,30.375,31.2288
609,2014/7/10,14:03:00,11-42.7000N,101-21.9800E,141,30.378,31.2268
610,2014/7/10,14:04:00,11-42.5400N,101-22.1100E,141,30.381,31.2239
611,2014/7/10,14:05:00,11-42.3700N,101-22.2400E,142,30.384,31.2224
612,2014/7/10,14:06:00,11-42.2100N,101-22.3700E,142,30.386,31.2211
613,2014/7/10,14:07:00,11-42.0500N,101-22.5000E,142,30.391,31.2214
614,2014/7/10,14:08:00,11-41.8800N,101-22.6300E,142,30.394,31.2222
615,2014/7/10,14:09:00,11-41.6900N,101-22.7800E,143,30.395,31.2206
616,2014/7/10,14:10:00,11-41.5300N,101-22.9100E,142,30.398,31.2191
617,2014/7/10,14:11:00,11-41.3600N,101-23.0400E,142,30.399,31.2191
618,2014/7/10,14:12:00,11-41.2100N,101-23.1600E,142,30.401,31.2187
619,2014/7/10,14:13:00,11-41.0600N,101-23.2800E,143,30.404,31.2182
620,2014/7/10,14:14:00,11-40.9000N,101-23.4000E,141,30.407,31.2175
621,2014/7/10,14:15:00,11-40.7100N,101-23.5500E,141,30.409,31.2164
622,2014/7/10,14:16:00,11-40.5400N,101-23.6800E,142,30.41,31.2156
623,2014/7/10,14:17:00,11-40.4000N,101-23.8000E,142,30.413,31.2141
624,2014/7/10,14:18:00,11-40.2400N,101-23.9200E,143,30.418,31.211
625,2014/7/10,14:19:00,11-40.0700N,101-24.0500E,143,30.422,31.2087
626,2014/7/10,14:20:00,11-39.9100N,101-24.1800E,141,30.427,31.2068
627,2014/7/10,14:21:00,11-39.7400N,101-24.3100E,143,30.429,31.2058
628,2014/7/10,14:22:00,11-39.5700N,101-24.4300E,144,30.43,31.2048
629,2014/7/10,14:23:00,11-39.4100N,101-24.5500E,145,30.433,31.2055
630,2014/7/10,14:24:00,11-39.2400N,101-24.6700E,144,30.436,31.2054
631,2014/7/10,14:25:00,11-39.0700N,101-24.8000E,143,30.438,31.2057
632,2014/7/10,14:26:00,11-38.9100N,101-24.9200E,143,30.44,31.2045
633,2014/7/10,14:27:00,11-38.7300N,101-25.0500E,144,30.443,31.2036
634,2014/7/10,14:28:00,11-38.5700N,101-25.1700E,144,30.446,31.203
635,2014/7/10,14:29:00,11-38.4100N,101-25.2900E,143,30.448,31.2023
636,2014/7/10,14:30:00,11-38.2400N,101-25.4100E,144,30.451,31.2016
637,2014/7/10,14:31:00,11-38.0700N,101-25.5400E,144,30.45,31.2028
638,2014/7/10,14:32:00,11-37.9000N,101-25.6600E,143,30.451,31.2008
639,2014/7/10,14:33:00,11-37.7400N,101-25.7900E,144,30.451,31.2006
640,2014/7/10,14:34:00,11-37.5700N,101-25.9100E,143,30.454,31.2022
641,2014/7/10,14:35:00,11-37.4100N,101-26.0400E,143,30.456,31.2035
642,2014/7/10,14:36:00,11-37.2400N,101-26.1600E,144,30.457,31.2034
643,2014/7/10,14:37:00,11-37.0700N,101-26.2900E,143,30.454,31.201
644,2014/7/10,14:38:00,11-36.9100N,101-26.4200E,142,30.451,31.2
645,2014/7/10,14:39:00,11-36.7500N,101-26.5400E,142,30.45,31.1985
646,2014/7/10,14:40:00,11-36.5800N,101-26.6800E,142,30.445,31.1976
647,2014/7/10,14:41:00,11-36.4200N,101-26.8100E,140,30.446,31.1971
648,2014/7/10,14:42:00,11-36.2600N,101-26.9400E,141,30.447,31.1968
649,2014/7/10,14:43:00,11-36.0900N,101-27.0800E,142,30.445,31.1969
650,2014/7/10,14:44:00,11-35.9100N,101-27.2200E,141,30.441,31.196
651,2014/7/10,14:45:00,11-35.7700N,101-27.3400E,141,30.44,31.1937
652,2014/7/10,14:46:00,11-35.6100N,101-27.4700E,141,30.436,31.1933
653,2014/7/10,14:47:00,11-35.4500N,101-27.6000E,142,30.434,31.1923
654,2014/7/10,14:48:00,11-35.2800N,101-27.7300E,142,30.434,31.19
655,2014/7/10,14:49:00,11-35.1200N,101-27.8600E,142,30.434,31.1911
656,2014/7/10,14:50:00,11-34.9500N,101-27.9900E,142,30.432,31.1907
657,2014/7/10,14:51:00,11-34.7900N,101-28.1300E,141,30.432,31.1906
658,2014/7/10,14:52:00,11-34.6200N,101-28.2600E,142,30.431,31.1901
659,2014/7/10,14:53:00,11-34.4600N,101-28.3900E,141,30.429,31.1894
660,2014/7/10,14:54:00,11-34.3000N,101-28.5300E,141,30.427,31.1888
661,2014/7/10,14:55:00,11-34.1300N,101-28.6600E,141,30.421,31.1863
662,2014/7/10,14:56:00,11-33.9600N,101-28.7900E,141,30.421,31.1809
663,2014/7/10,14:57:00,11-33.8000N,101-28.9100E,142,30.421,31.181
664,2014/7/10,14:58:00,11-33.6300N,101-29.0400E,143,30.419,31.1815
665,2014/7/10,14:59:00,11-33.4700N,101-29.1700E,143,30.419,31.1808
666,2014/7/10,15:00:00,11-33.3000N,101-29.3000E,144,30.418,31.1816
667,2014/7/10,15:01:00,11-33.1400N,101-29.4300E,144,30.416,31.1828
668,2014/7/10,15:02:00,11-32.9600N,101-29.5500E,144,30.414,31.1822
669,2014/7/10,15:03:00,11-32.7900N,101-29.6800E,142,30.412,31.1832
670,2014/7/10,15:04:00,11-32.6000N,101-29.8200E,143,30.414,31.1827
671,2014/7/10,15:05:00,11-32.4300N,101-29.9500E,142,30.415,31.1851
672,2014/7/10,15:06:00,11-32.2600N,101-30.0800E,143,30.416,31.1854
673,2014/7/10,15:07:00,11-32.1000N,101-30.1900E,145,30.418,31.1876
674,2014/7/10,15:08:00,11-31.9500N,101-30.3000E,143,30.424,31.1931
675,2014/7/10,15:09:00,11-31.7800N,101-30.4300E,143,30.427,31.1968
676,2014/7/10,15:10:00,11-31.6100N,101-30.5600E,143,30.433,31.202
677,2014/7/10,15:11:00,11-31.4500N,101-30.6800E,143,30.436,31.2089
678,2014/7/10,15:12:00,11-31.2800N,101-30.8100E,142,30.439,31.2123
679,2014/7/10,15:13:00,11-31.1000N,101-30.9500E,142,30.441,31.2146
680,2014/7/10,15:14:00,11-30.9200N,101-31.0800E,143,30.445,31.2148
681,2014/7/10,15:15:00,11-30.7600N,101-31.2100E,142,30.449,31.2185
682,2014/7/10,15:16:00,11-30.6100N,101-31.3200E,142,30.451,31.2221
683,2014/7/10,15:17:00,11-30.4500N,101-31.4500E,142,30.451,31.2236
684,2014/7/10,15:18:00,11-30.2800N,101-31.5800E,141,30.452,31.2229
685,2014/7/10,15:19:00,11-30.1200N,101-31.7100E,142,30.456,31.2235
686,2014/7/10,15:20:00,11-29.9500N,101-31.8500E,140,30.46,31.2252
687,2014/7/10,15:21:00,11-29.7900N,101-31.9900E,141,30.462,31.2287
688,2014/7/10,15:22:00,11-29.6300N,101-32.1200E,140,30.462,31.2301
689,2014/7/10,15:23:00,11-29.4600N,101-32.2500E,142,30.46,31.2291
690,2014/7/10,15:24:00,11-29.3000N,101-32.3900E,141,30.458,31.2277
691,2014/7/10,15:25:00,11-29.1300N,101-32.5300E,141,30.456,31.2253
692,2014/7/10,15:26:00,11-28.9700N,101-32.6600E,141,30.452,31.2256
693,2014/7/10,15:27:00,11-28.8000N,101-32.7900E,141,30.45,31.2254
694,2014/7/10,15:28:00,11-28.6400N,101-32.9300E,141,30.447,31.2242
695,2014/7/10,15:29:00,11-28.4800N,101-33.0600E,141,30.442,31.2219
696,2014/7/10,15:30:00,11-28.3100N,101-33.1900E,140,30.439,31.22
697,2014/7/10,15:31:00,11-28.1500N,101-33.3300E,141,30.435,31.2177
698,2014/7/10,15:32:00,11-27.9800N,101-33.4600E,142,30.432,31.2159
699,2014/7/10,15:33:00,11-27.8100N,101-33.5900E,142,30.426,31.2146
700,2014/7/10,15:34:00,11-27.6400N,101-33.7200E,142,30.422,31.2124
701,2014/7/10,15:35:00,11-27.4700N,101-33.8500E,143,30.42,31.2118
702,2014/7/10,15:36:00,11-27.3000N,101-33.9800E,143,30.419,31.2124
703,2014/7/10,15:37:00,11-27.1300N,101-34.1100E,143,30.42,31.2115
704,2014/7/10,15:38:00,11-26.9600N,101-34.2400E,143,30.418,31.2138
705,2014/7/10,15:39:00,11-26.7900N,101-34.3700E,143,30.418,31.2147
706,2014/7/10,15:40:00,11-26.6200N,101-34.4900E,142,30.419,31.2165
707,2014/7/10,15:41:00,11-26.4500N,101-34.6200E,143,30.421,31.2184
708,2014/7/10,15:42:00,11-26.2800N,101-34.7500E,143,30.424,31.2197
709,2014/7/10,15:43:00,11-26.1100N,101-34.8800E,142,30.423,31.2221
710,2014/7/10,15:44:00,11-25.9400N,101-35.0200E,141,30.423,31.2241
711,2014/7/10,15:45:00,11-25.7700N,101-35.1500E,142,30.424,31.2264
712,2014/7/10,15:46:00,11-25.6100N,101-35.2800E,141,30.425,31.2285
713,2014/7/10,15:47:00,11-25.4400N,101-35.4100E,142,30.423,31.2329
714,2014/7/10,15:48:00,11-25.2700N,101-35.5400E,142,30.417,31.2322
715,2014/7/10,15:49:00,11-25.1000N,101-35.6700E,141,30.408,31.2326
716,2014/7/10,15:50:00,11-24.9400N,101-35.8100E,140,30.402,31.2306
717,2014/7/10,15:51:00,11-24.7700N,101-35.9400E,143,30.403,31.229
718,2014/7/10,15:52:00,11-24.6000N,101-36.0700E,142,30.405,31.2316
719,2014/7/10,15:53:00,11-24.4400N,101-36.2100E,141,30.402,31.2351
720,2014/7/10,15:54:00,11-24.2700N,101-36.3400E,141,30.407,31.2348
721,2014/7/10,15:55:00,11-24.1000N,101-36.4700E,141,30.407,31.2397
722,2014/7/10,15:56:00,11-23.9400N,101-36.6100E,141,30.405,31.2441
723,2014/7/10,15:57:00,11-23.7700N,101-36.7400E,142,30.401,31.2416
724,2014/7/10,15:58:00,11-23.6000N,101-36.8800E,142,30.398,31.2386
725,2014/7/10,15:59:00,11-23.4400N,101-37.0100E,142,30.398,31.2346
726,2014/7/10,16:00:00,11-23.2700N,101-37.1400E,142,30.398,31.2342
727,2014/7/10,16:01:00,11-23.1000N,101-37.2700E,142,30.399,31.2348
728,2014/7/10,16:02:00,11-22.9300N,101-37.4000E,142,30.402,31.2357
729,2014/7/10,16:03:00,11-22.7600N,101-37.5300E,142,30.405,31.2384
730,2014/7/10,16:04:00,11-22.5900N,101-37.6600E,142,30.409,31.2429
731,2014/7/10,16:05:00,11-22.4200N,101-37.7900E,142,30.409,31.2474
732,2014/7/10,16:06:00,11-22.2500N,101-37.9200E,144,30.408,31.2511
733,2014/7/10,16:07:00,11-22.0700N,101-38.0500E,143,30.412,31.2472
734,2014/7/10,16:08:00,11-21.9000N,101-38.1900E,143,30.416,31.2473
735,2014/7/10,16:09:00,11-21.7300N,101-38.3100E,143,30.414,31.248
736,2014/7/10,16:10:00,11-21.5600N,101-38.4400E,143,30.413,31.2507
737,2014/7/10,16:11:00,11-21.3900N,101-38.5700E,143,30.411,31.2445
738,2014/7/10,16:12:00,11-21.2200N,101-38.7000E,144,30.411,31.2391
739,2014/7/10,16:13:00,11-21.0400N,101-38.8300E,143,30.414,31.2364
740,2014/7/10,16:14:00,11-20.8700N,101-38.9600E,142,30.416,31.2358
741,2014/7/10,16:15:00,11-20.7000N,101-39.0900E,142,30.42,31.2383
742,2014/7/10,16:16:00,11-20.5300N,101-39.2200E,143,30.424,31.2422
743,2014/7/10,16:17:00,11-20.3600N,101-39.3500E,142,30.428,31.2467
744,2014/7/10,16:18:00,11-20.1900N,101-39.4800E,141,30.432,31.251
745,2014/7/10,16:19:00,11-20.0200N,101-39.6200E,140,30.435,31.2545
746,2014/7/10,16:20:00,11-19.8500N,101-39.7500E,140,30.434,31.2587
747,2014/7/10,16:21:00,11-19.6800N,101-39.8900E,142,30.432,31.2574
748,2014/7/10,16:22:00,11-19.5100N,101-40.0200E,141,30.432,31.2547
749,2014/7/10,16:23:00,11-19.3400N,101-40.1500E,142,30.43,31.254
750,2014/7/10,16:24:00,11-19.1700N,101-40.2900E,141,30.431,31.2533
751,2014/7/10,16:25:00,11-19.0000N,101-40.4200E,140,30.436,31.2535
752,2014/7/10,16:26:00,11-18.8400N,101-40.5600E,141,30.437,31.2553
753,2014/7/10,16:27:00,11-18.6700N,101-40.7000E,141,30.439,31.2572
754,2014/7/10,16:28:00,11-18.5000N,101-40.8300E,140,30.44,31.258
755,2014/7/10,16:29:00,11-18.3400N,101-40.9700E,141,30.441,31.26
756,2014/7/10,16:30:00,11-18.1700N,101-41.1000E,141,30.442,31.2605
757,2014/7/10,16:31:00,11-18.0000N,101-41.2400E,142,30.445,31.2616
758,2014/7/10,16:32:00,11-17.8300N,101-41.3700E,141,30.447,31.2633
759,2014/7/10,16:33:00,11-17.6600N,101-41.5000E,141,30.45,31.2651
760,2014/7/10,16:34:00,11-17.4900N,101-41.6400E,140,30.453,31.2669
761,2014/7/10,16:35:00,11-17.3200N,101-41.7700E,142,30.453,31.2688
762,2014/7/10,16:36:00,11-17.1500N,101-41.9000E,142,30.454,31.2703
763,2014/7/10,16:37:00,11-16.9800N,101-42.0300E,142,30.456,31.2698
764,2014/7/10,16:38:00,11-16.8000N,101-42.1600E,143,30.459,31.2725
765,2014/7/10,16:39:00,11-16.6300N,101-42.2900E,143,30.46,31.2741
766,2014/7/10,16:40:00,11-16.4600N,101-42.4300E,141,30.461,31.2744
767,2014/7/10,16:41:00,11-16.2900N,101-42.5600E,142,30.46,31.2757
768,2014/7/10,16:42:00,11-16.1200N,101-42.7000E,142,30.46,31.2765
769,2014/7/10,16:43:00,11-15.9500N,101-42.8300E,143,30.463,31.2777
770,2014/7/10,16:44:00,11-15.7800N,101-42.9600E,143,30.465,31.2786
771,2014/7/10,16:45:00,11-15.6100N,101-43.0900E,142,30.465,31.2809
772,2014/7/10,16:46:00,11-15.4300N,101-43.2200E,142,30.465,31.2821
773,2014/7/10,16:47:00,11-15.2600N,101-43.3600E,143,30.465,31.2841
774,2014/7/10,16:48:00,11-15.0900N,101-43.4900E,142,30.464,31.2865
775,2014/7/10,16:49:00,11-14.9200N,101-43.6200E,143,30.467,31.2868
776,2014/7/10,16:50:00,11-14.7500N,101-43.7500E,142,30.467,31.2881
777,2014/7/10,16:51:00,11-14.5800N,101-43.8800E,141,30.467,31.2874
778,2014/7/10,16:52:00,11-14.4100N,101-44.0200E,141,30.468,31.2889
779,2014/7/10,16:53:00,11-14.2400N,101-44.1500E,141,30.468,31.2903
780,2014/7/10,16:54:00,11-14.0700N,101-44.2800E,142,30.467,31.2908
781,2014/7/10,16:55:00,11-13.9000N,101-44.4200E,141,30.467,31.2928
782,2014/7/10,16:56:00,11-13.7300N,101-44.5500E,142,30.47,31.2939
783,2014/7/10,16:57:00,11-13.5600N,101-44.6800E,142,30.47,31.2958
784,2014/7/10,16:58:00,11-13.3800N,101-44.8200E,142,30.468,31.2962
785,2014/7/10,16:59:00,11-13.2100N,101-44.9500E,142,30.469,31.2957
786,2014/7/10,17:00:00,11-13.0400N,101-45.0800E,142,30.469,31.2981
787,2014/7/10,17:01:00,11-12.8700N,101-45.2100E,142,30.47,31.2996